RH
33 35 37 40 42 43 43 42 39 39 41 40 38 40 41 43 48 46 42 41 37 37 41 43 41 38 38 39 41 44 47 47 46 43 40 37 36 37 39 41 44 44
33 35 36 36 38 39 41 42 39 37 42 44 42 42 42 43 47 47 45 45 43 41 41 41 39 35 34 36 37 38 40 41 41 42 42 39 38 38 39 41 44 45
31 35 35 33 34 38 42 43 42 41 43 47 49 49 48 47 47 47 45 45 45 43 42 41 39 36 34 36 37 37 37 37 38 38 40 41 40 39 40 42 44 45
29 33 34 33 36 39 41 43 46 46 47 49 51 52 52 52 51 50 47 45 44 43 43 43 41 38 37 37 38 39 38 38 38 37 37 42 44 43 42 43 45 46
28 31 33 35 39 39 40 44 48 49 47 49 51 50 51 53 53 52 51 48 45 42 42 43 42 41 41 40 38 39 40 39 41 41 41 42 44 43 42 42 43 45
28 30 32 36 40 42 42 45 49 51 49 48 49 50 52 53 53 54 54 52 48 45 42 42 43 43 43 42 40 41 41 41 43 45 45 44 42 41 40 40 42 45
28 29 30 33 39 43 44 44 48 53 53 49 48 50 51 52 53 54 53 52 51 49 46 45 47 49 47 45 44 44 43 43 45 47 47 48 48 46 43 41 43 47
30 29 29 32 37 42 43 43 46 51 54 53 52 52 53 54 56 56 54 53 51 50 49 48 51 54 54 50 49 50 47 45 47 48 48 49 49 47 44 43 44 47
36 33 31 32 37 41 41 41 43 46 51 54 52 51 53 56 58 58 57 55 53 51 51 51 53 56 56 52 51 53 52 50 49 49 50 51 48 44 43 44 46 47
43 41 38 34 36 40 40 39 40 43 47 50 50 48 51 53 53 55 57 56 56 56 55 53 52 54 55 53 50 51 53 54 52 50 52 54 52 48 45 43 45 47
46 45 45 42 40 41 41 40 40 42 44 47 48 46 46 48 49 52 55 55 55 57 58 56 53 51 51 52 49 48 51 54 54 53 52 53 53 52 49 45 46 48
46 47 48 47 46 46 45 43 41 41 42 45 48 47 46 47 49 52 55 55 54 55 56 57 57 53 49 49 48 47 47 49 54 57 55 53 54 55 52 48 48 48
48 48 48 48 48 48 48 46 43 43 42 43 45 46 47 48 49 51 54 56 56 56 56 56 59 57 53 51 49 48 46 45 49 56 58 56 56 56 54 52 52 51
52 50 49 49 49 49 49 48 46 45 43 42 44 46 46 47 48 49 51 54 56 58 58 58 58 57 55 54 53 50 48 44 44 48 52 56 58 59 57 56 56 56
55 51 50 52 54 53 51 50 48 48 46 45 45 47 47 47 47 46 46 49 54 61 63 61 59 58 57 57 56 54 51 49 47 47 46 50 54 58 61 61 60 59
65 58 51 52 58 59 53 48 47 48 49 47 45 48 53 52 49 47 46 45 49 58 64 63 62 61 62 63 62 58 57 55 55 53 51 50 51 54 58 61 61 60
77 70 58 53 57 59 52 45 45 47 47 46 44 48 55 55 51 51 52 49 49 54 62 64 61 59 63 68 66 61 58 58 57 58 57 55 52 51 53 55 56 56
76 76 69 59 58 60 54 46 47 49 48 48 46 48 52 52 50 51 52 51 51 56 64 69 66 65 68 71 69 64 60 58 59 59 58 56 53 51 50 49 49 49
76 80 78 68 63 66 62 54 52 54 54 54 54 54 54 53 52 52 52 54 57 61 68 72 71 74 77 76 73 71 68 64 62 59 57 55 53 52 49 46 44 43
84 83 81 76 72 73 71 66 63 61 60 61 63 64 63 61 58 55 55 60 65 70 74 72 69 74 78 74 73 74 74 71 66 62 58 56 55 54 51 44 41 41
85 82 80 80 78 78 78 77 75 73 70 69 70 72 72 71 69 68 66 67 69 74 78 77 72 75 76 72 69 71 74 74 72 68 63 59 56 57 55 47 40 40
81 80 80 81 81 80 80 79 79 80 79 78 78 79 79 77 77 78 79 79 77 78 82 82 78 77 78 75 69 67 68 70 72 72 69 64 60 59 59 52 44 40
82 82 83 84 84 85 84 83 82 82 82 82 82 83 84 85 84 82 82 83 82 82 85 87 85 83 83 80 75 69 66 65 67 68 69 68 64 61 59 53 46 41
80 84 86 87 87 87 87 87 88 87 85 84 83 85 87 88 88 88 87 87 86 86 86 88 89 89 86 83 79 74 71 69 68 68 69 69 66 62 60 55 49 43
77 80 83 84 86 85 85 86 86 85 85 85 85 86 87 87 88 88 88 88 89 89 89 89 90 90 89 86 83 79 77 77 77 76 76 74 69 65 63 60 54 50
77 77 79 81 81 80 80 81 82 81 82 83 85 85 85 87 87 87 86 87 87 88 89 89 89 88 88 88 87 85 83 82 82 83 83 80 75 69 68 66 63 59